This is the latest recevied weather packets stored in our database for station/object W3JGB. If no packets are shown the sender has not sent any weather packets the latest 1 day(s).
| Time | Temp. | Humidity | Pressure | Rain* | Wind** | Luminosity | Snow |
|---|---|---|---|---|---|---|---|
| 1777983896 | 15.56° C | 88% | 1008.9 hPa | 0 mm | 0 m/s | 214 W/m² | - |
| 1777983593 | 15.56° C | 90% | 1008.9 hPa | 0 mm | 0 m/s | 65 W/m² | - |
| 1777983289 | 15.56° C | 88% | 1009 hPa | 0 mm | 0 m/s | 46 W/m² | - |
| 1777982985 | 15.56° C | 86% | 1008.7 hPa | 0 mm | 0 m/s | 42 W/m² | - |
| 1777982682 | 15.56° C | 83% | 1009 hPa | 0 mm | 0 m/s | 41 W/m² | - |
| 1777982381 | 14.44° C | 89% | 1008.9 hPa | 0 mm | 0 m/s | 44 W/m² | - |
| 1777982078 | 13.33° C | 90% | 1008.8 hPa | 0 mm | 0.45 m/s, 24° | 37 W/m² | - |
| 1777981776 | 13.33° C | 93% | 1008.9 hPa | 0 mm | 0 m/s | 32 W/m² | - |
| 1777981472 | 13.33° C | 94% | 1008.6 hPa | 0 mm | 0 m/s | 31 W/m² | - |
| 1777981168 | 12.78° C | 94% | 1008.9 hPa | 0 mm | 0 m/s | 36 W/m² | - |
| 1777980865 | 12.22° C | 95% | 1008.7 hPa | 0 mm | 0 m/s | 52 W/m² | - |
| 1777980561 | 11.67° C | 95% | 1008.7 hPa | 0 mm | 0 m/s | 55 W/m² | - |
| 1777980259 | 11.67° C | 95% | 1008.9 hPa | 0 mm | 0 m/s | 31 W/m² | - |
| 1777979954 | 11.11° C | 97% | 1008.8 hPa | 0 mm | 0 m/s | 23 W/m² | - |
| 1777979649 | 10.56° C | 97% | 1008.2 hPa | 0 mm | 0 m/s | 14 W/m² | - |
| 1777979346 | 10.56° C | 98% | 1008.6 hPa | 0 mm | 0.45 m/s, 1° | 11 W/m² | - |
| 1777979043 | 10° C | 98% | 1008.4 hPa | 0 mm | 0 m/s | 17 W/m² | - |
| 1777978740 | 10° C | 98% | 1008.4 hPa | 0 mm | 0 m/s | 20 W/m² | - |
| 1777978436 | 10° C | 98% | 1008.5 hPa | 0 mm | 0 m/s | 13 W/m² | - |
| 1777978133 | 9.44° C | 98% | 1008.4 hPa | 0 mm | 0 m/s | 10 W/m² | - |
| 1777977830 | 9.44° C | 99% | 1008.2 hPa | 0 mm | 0 m/s | 8 W/m² | - |
| 1777977525 | 9.44° C | 99% | 1008.2 hPa | 0 mm | 0 m/s | 19 W/m² | - |
| 1777977223 | 8.89° C | 99% | 1008.2 hPa | 0 mm | 0 m/s | 18 W/m² | - |
| 1777976921 | 8.89° C | 99% | 1008.1 hPa | 0 mm | 0 m/s | 11 W/m² | - |
| 1777976618 | 8.89° C | 99% | 1008.1 hPa | 0 mm | 0 m/s | 8 W/m² | - |
* Rain latest hour (hover to see other rain measurements)
** Current wind speed in m/s (hover to see current wind gust speed)